Theta_e
325 317 313 315 315 315 311 307 306 314 321 321 319 321 325 327 325 321 318 318 319 320 324 327 332 334 334 333 335 334 340 341 343 342 340 339 337 341 349 351 353 350 349 350
314 311 319 317 315 313 310 306 305 314 319 320 319 319 325 327 326 324 321 319 321 321 321 324 327 331 332 333 336 332 338 339 343 343 341 339 337 343 348 351 354 352 350 351
309 311 317 313 309 308 305 305 306 309 320 320 318 313 318 325 328 327 327 325 324 323 321 323 324 327 331 332 336 335 336 340 343 344 343 344 346 346 345 348 351 352 351 351
310 313 312 306 304 306 296 308 311 317 312 307 315 301 311 318 322 325 326 326 326 326 325 324 325 326 328 332 337 337 339 340 342 343 341 340 338 339 343 344 349 352 352 350
305 306 305 303 304 303 299 310 313 316 310 310 311 305 307 316 316 320 324 326 328 329 329 326 326 327 330 332 336 337 341 342 341 342 341 339 337 340 343 344 347 350 349 351
308 311 307 306 306 305 307 310 306 300 306 301 305 306 304 310 316 320 325 327 329 330 331 330 329 328 328 332 334 335 336 341 340 341 341 339 337 338 341 343 343 346 348 346
301 303 304 305 300 300 301 294 291 292 297 298 297 303 308 310 317 322 324 326 328 330 331 331 326 326 327 329 332 334 333 334 337 340 340 340 339 339 340 342 344 344 344 343
294 296 301 304 303 300 296 295 291 286 288 292 300 299 306 315 318 320 323 327 329 329 330 330 329 328 328 330 331 333 332 332 331 334 338 340 339 339 340 343 345 345 342 342
292 295 305 306 304 303 296 294 297 294 296 296 299 303 309 314 317 320 324 326 328 330 330 330 329 330 330 330 331 333 332 332 332 332 332 332 337 340 341 343 346 344 345 342
298 295 300 303 305 304 302 300 295 294 292 291 295 298 301 307 312 318 322 323 326 330 332 333 331 328 329 331 332 334 334 332 333 333 333 333 335 340 343 345 346 346 346 345
299 298 298 302 300 298 300 297 292 295 295 292 291 296 304 309 313 317 321 323 326 330 331 334 334 335 336 335 335 334 334 334 334 334 335 336 337 341 343 343 344 347 349 349
300 296 294 298 301 302 300 297 292 291 293 294 293 296 310 311 314 319 319 320 323 330 331 332 330 330 330 333 335 337 336 335 336 337 337 337 339 341 342 343 348 349 348 352
300 295 292 298 299 299 300 296 292 295 297 296 294 295 311 314 316 319 318 319 321 325 325 325 326 326 327 330 332 334 336 335 337 337 338 339 340 340 340 342 344 348 352 352
307 292 295 294 297 298 298 301 297 296 294 293 296 298 305 311 314 317 320 322 324 326 326 325 327 333 335 332 329 331 333 336 337 337 338 338 340 343 344 345 347 349 351 352
300 296 292 296 298 300 299 300 299 297 294 296 295 300 303 310 313 317 320 323 324 326 327 331 335 336 337 337 338 337 337 337 338 339 340 342 344 346 347 347 347 346 349 350
300 297 297 296 300 300 298 299 299 297 298 300 301 302 309 311 316 318 320 322 322 328 332 336 338 340 340 341 342 343 343 343 344 342 340 341 341 341 341 342 343 343 343 344
300 296 295 293 296 298 295 300 300 299 301 304 301 305 311 312 315 316 319 322 323 330 335 337 339 340 341 341 340 337 336 336 335 334 334 334 334 333 335 336 335 335 336 336
297 294 292 293 294 291 299 301 303 302 303 308 305 308 312 313 315 317 320 322 323 332 338 339 340 340 339 336 334 334 333 332 331 330 329 328 327 328 328 327 326 327 328 328
299 297 293 293 291 295 301 303 302 301 302 309 307 311 315 317 317 317 322 324 325 332 339 340 342 339 335 333 332 330 328 327 327 325 324 324 323 324 323 323 325 325 325 326
299 298 299 293 294 292 299 309 314 306 298 308 309 312 315 315 308 312 321 325 328 338 341 341 338 334 332 329 328 326 324 323 323 324 324 324 325 323 322 324 324 325 323 323
297 295 294 294 293 297 308 311 313 299 300 310 309 311 315 312 313 316 324 325 333 340 340 337 334 331 328 326 325 322 321 321 323 325 324 325 325 323 323 324 324 320 318 318
295 294 294 293 292 293 310 309 302 305 310 311 311 312 317 318 318 322 325 329 336 337 334 333 331 330 328 326 323 321 320 322 323 324 324 324 326 327 324 320 318 318 318 317
296 297 296 296 296 305 309 308 312 310 309 311 311 313 315 322 320 323 326 332 334 335 332 336 334 329 326 324 323 321 321 322 323 323 324 325 324 324 323 319 317 317 318 317
298 301 298 302 303 303 305 310 311 312 312 314 313 314 316 324 323 326 329 330 331 332 333 335 330 326 323 324 323 321 321 323 321 320 320 320 319 319 321 319 318 317 317 317
294 298 298 297 301 301 306 304 306 312 315 316 314 316 319 327 326 328 329 330 331 333 332 330 327 325 323 322 320 322 322 320 319 318 318 317 317 317 317 317 317 318 318 317
295 298 293 291 297 298 301 305 308 312 313 316 313 314 321 324 327 329 329 331 330 330 329 327 326 324 321 320 322 321 321 320 318 316 316 316 316 316 317 318 315 309 307 305
Wind_Speed
2 3 7 9 9 2 4 2 3 1 2 5 4 7 11 8 6 7 7 8 10 9 6 7 9 10 10 8 9 8 8 7 5 2 2 1 3 2 2 3 4 5 4 3
3 10 13 6 4 6 6 5 7 3 2 6 3 3 7 11 9 10 12 11 13 8 8 8 7 8 11 12 11 8 9 7 7 3 2 2 2 3 1 1 3 4 5 4
7 6 6 4 4 5 5 8 6 5 6 7 6 0 6 8 7 9 10 10 10 13 14 14 13 13 11 11 10 9 10 10 7 6 2 2 1 1 1 1 2 3 6 7
6 5 3 1 5 6 3 12 8 9 6 4 2 5 6 8 12 12 13 13 13 13 12 13 16 15 14 12 10 10 10 11 7 8 5 6 4 4 3 2 3 2 6 7
9 3 3 5 6 7 2 7 6 4 5 5 1 3 5 7 9 14 16 16 16 15 14 15 14 14 11 12 11 12 11 9 8 9 7 5 5 3 1 2 2 2 3 5
7 5 5 8 3 7 8 9 9 5 3 3 3 5 6 7 10 8 13 14 15 15 14 12 11 9 9 7 8 9 10 9 8 10 10 9 8 6 3 3 3 3 1 3
7 6 4 4 1 5 8 8 5 5 4 7 0 4 11 3 6 7 12 12 14 15 14 13 13 12 10 11 11 10 9 10 8 10 8 8 9 6 6 6 4 3 2 3
1 10 1 4 6 8 7 9 8 5 4 3 4 5 8 4 6 4 3 6 12 14 14 17 16 16 15 15 13 13 11 12 9 10 10 6 7 5 4 5 3 4 4 5
3 8 7 5 4 6 5 4 5 9 3 3 3 8 10 5 4 4 4 6 14 14 15 16 15 16 15 14 15 14 11 12 10 12 7 7 6 5 4 5 4 5 5 5
5 3 3 6 3 3 3 6 4 4 5 3 4 6 8 3 6 5 6 7 7 7 10 12 14 14 13 13 14 13 12 14 12 10 9 8 8 8 7 4 6 7 8 6
6 3 8 5 1 3 2 2 7 7 5 6 1 9 7 9 10 11 10 8 9 8 5 5 7 9 9 9 11 13 12 12 10 10 9 9 7 7 5 5 6 10 8 8
7 6 5 10 2 1 3 4 6 7 4 2 3 8 2 4 5 5 5 6 3 2 6 7 6 7 7 8 8 11 12 12 12 11 8 10 8 6 5 6 8 6 10 8
9 4 3 10 7 2 3 3 5 5 4 5 6 8 2 4 5 3 4 5 3 5 6 6 5 6 7 8 11 9 9 10 8 8 9 6 5 6 7 7 9 8 8 10
9 3 8 8 10 5 2 3 0 6 5 6 7 6 4 7 7 7 6 7 2 4 7 5 5 5 6 6 5 8 8 9 7 6 6 6 6 6 7 6 6 6 5 5
5 3 4 6 4 3 2 2 6 5 5 7 6 7 4 12 11 9 7 8 6 3 8 8 7 8 8 7 8 8 7 7 7 6 5 3 4 4 3 4 3 3 2 1
1 1 2 2 3 4 2 2 6 2 3 1 3 7 5 3 8 8 9 8 6 5 7 8 8 9 9 9 11 10 9 8 9 10 8 5 8 7 6 5 5 6 5 5
1 7 4 4 5 4 5 6 6 5 5 8 6 10 7 5 9 14 11 10 9 7 7 6 10 8 9 10 9 10 9 9 10 11 7 7 7 6 5 5 5 5 5 4
2 4 3 4 2 2 10 3 6 4 4 7 5 1 5 5 4 6 4 9 10 8 9 9 8 9 8 10 9 9 8 9 9 9 8 5 7 6 5 5 5 4 3 4
3 5 4 4 4 5 4 6 6 4 5 9 5 3 3 4 4 2 8 8 10 7 7 9 8 9 10 11 7 9 8 8 8 8 6 5 6 6 5 5 4 3 4 5
3 4 4 4 4 7 4 7 7 6 5 9 8 5 11 6 4 7 13 10 10 13 13 12 10 9 10 6 7 10 7 8 8 6 5 5 5 6 6 4 4 3 5 5
0 4 5 4 3 6 5 12 7 7 8 16 5 5 6 7 8 4 13 9 12 15 16 15 13 11 9 7 6 8 7 7 6 6 5 6 4 6 5 4 3 4 6 6
6 6 5 3 4 6 7 5 3 6 7 9 9 6 11 10 6 8 14 15 18 20 19 16 14 11 10 9 10 7 6 5 6 6 6 6 5 4 5 7 4 6 6 7
0 3 3 5 4 2 2 7 5 3 4 6 10 11 10 8 7 11 11 16 16 20 17 15 14 11 8 8 9 9 6 5 6 6 6 5 5 5 5 6 5 5 5 4
4 2 1 2 4 4 4 2 2 4 5 7 11 11 9 11 9 7 14 15 16 17 18 14 13 13 10 9 8 6 7 6 7 6 6 5 6 5 5 4 3 4 4 3
4 6 3 4 4 9 4 8 8 9 8 10 13 13 10 6 11 13 13 17 17 17 14 14 14 13 12 10 9 8 8 9 8 7 5 5 4 5 5 4 3 3 2 1
4 4 2 5 5 5 7 8 9 8 8 10 9 14 14 6 7 9 12 14 17 16 14 12 11 12 12 11 10 8 8 9 9 7 4 3 4 4 3 5 5 11 8 7
Wind_Direction
232 46 233 231 205 271 318 303 232 240 202 111 170 140 166 167 150 160 175 180 185 176 184 180 178 170 172 173 183 173 169 179 158 146 176 204 230 240 230 221 203 181 190 220
83 239 234 239 200 216 213 250 269 312 156 93 122 140 174 178 192 188 183 190 196 171 171 194 191 184 182 184 192 165 182 180 190 160 183 161 185 223 242 208 210 167 186 192
190 239 148 195 230 194 236 202 202 181 119 61 125 109 172 197 185 182 202 204 198 190 190 189 199 193 196 195 182 178 188 194 194 172 151 125 241 39 280 239 212 200 175 196
231 276 251 127 253 145 277 194 173 160 124 176 173 260 220 187 199 193 199 197 203 201 202 197 196 202 201 201 187 170 189 197 192 169 177 184 196 201 229 201 186 190 197 202
251 291 304 293 200 192 278 134 138 87 85 95 241 56 266 145 210 210 202 201 203 202 201 203 198 200 206 198 183 181 187 194 183 183 186 188 216 216 216 255 225 200 201 202
250 251 238 221 156 186 132 73 54 60 78 350 241 132 270 188 207 199 208 203 201 198 202 205 206 194 199 182 185 183 178 189 183 183 192 194 207 222 223 243 253 261 205 203
319 231 235 180 30 23 72 65 19 17 10 228 177 145 251 216 229 186 198 198 199 197 190 193 182 188 191 183 184 191 188 201 197 199 200 200 212 218 223 233 225 237 258 233
338 320 239 147 193 165 182 156 157 175 198 254 130 233 257 231 127 133 208 218 182 193 189 191 190 191 191 189 184 185 190 208 202 206 208 203 208 208 218 227 233 245 238 247
162 275 301 210 209 138 180 166 171 99 52 79 248 291 294 164 148 138 162 181 181 192 189 190 187 191 190 191 195 192 189 204 205 215 213 213 210 206 204 231 224 244 248 250
223 291 246 294 86 32 144 149 74 18 134 225 295 277 240 226 201 181 182 190 185 184 199 193 192 187 190 189 191 189 189 194 194 195 201 211 202 192 201 198 233 230 250 247
143 139 267 3 343 222 50 44 49 111 111 156 195 265 207 216 195 195 201 195 175 163 177 170 176 181 183 185 185 190 193 192 190 195 200 204 202 211 185 207 239 249 243 235
193 162 243 235 261 35 283 124 139 120 211 89 135 274 330 243 182 170 195 92 75 90 128 150 154 141 157 181 192 192 194 192 193 196 186 202 198 195 194 228 237 228 247 239
186 215 19 346 0 351 215 130 113 112 89 185 131 265 46 102 104 74 104 99 121 133 147 141 143 182 201 223 220 208 182 187 178 176 187 194 207 177 209 222 243 252 242 255
93 131 152 182 212 165 178 151 225 117 114 169 224 279 219 171 178 154 159 144 159 179 161 171 169 199 228 249 183 151 149 159 167 165 171 194 216 218 224 235 239 232 231 259
103 129 153 233 232 292 133 189 175 191 164 144 243 206 262 191 190 177 169 132 159 229 151 154 163 167 166 145 120 109 118 139 152 157 170 188 207 223 243 233 240 227 218 70
99 181 218 312 10 182 286 278 211 232 124 339 106 253 206 166 110 148 166 154 154 148 152 150 167 113 88 96 97 102 105 106 121 107 92 96 85 79 60 58 73 75 70 60
46 134 120 263 336 68 348 253 193 183 179 147 164 226 157 177 186 174 168 161 158 167 156 153 94 97 103 97 107 103 104 107 93 95 95 87 86 80 75 73 63 61 58 58
111 89 64 186 16 128 239 278 222 208 187 196 272 170 194 190 112 124 157 156 160 160 141 112 110 106 98 97 92 106 103 94 103 101 97 92 94 87 75 68 67 60 42 45
175 137 95 144 176 272 290 31 30 2 262 187 217 130 112 100 79 168 183 166 159 136 122 122 124 121 106 105 120 116 107 111 108 95 96 103 100 100 85 79 76 59 66 62
48 62 118 127 142 201 259 321 323 297 297 46 328 221 154 141 128 243 175 159 142 129 135 125 108 106 106 116 130 118 117 101 95 106 117 104 102 105 107 122 89 69 70 75
11 329 152 136 210 281 311 309 301 108 247 325 325 272 248 181 193 168 136 132 134 140 130 124 128 130 130 120 119 110 102 110 131 131 127 112 129 113 120 107 90 89 83 81
182 164 196 90 149 258 337 26 103 263 303 305 311 297 227 307 130 151 153 134 140 135 137 137 137 146 147 132 118 111 125 156 139 133 128 124 118 102 106 99 88 84 87 80
316 205 209 166 197 211 6 137 217 247 261 295 293 301 274 212 243 155 147 141 147 147 148 149 148 137 144 137 121 137 167 166 140 135 124 116 101 105 116 110 109 91 82 84
309 19 83 62 217 358 227 245 313 281 266 300 324 321 241 208 180 158 145 143 148 152 156 149 142 152 147 133 132 138 171 149 125 115 108 101 99 100 98 89 92 97 93 90
241 343 331 284 333 340 182 19 333 318 319 335 336 354 329 189 188 165 154 154 156 158 158 151 152 152 148 130 138 156 154 126 117 112 111 105 97 95 105 83 73 92 107 132
203 200 121 243 264 206 260 302 306 317 324 323 331 341 356 300 204 171 169 157 155 157 153 146 140 140 140 142 148 150 136 135 127 121 121 116 108 98 113 105 81 52 54 74